Location: Atbuku
(36.4936°N, 30.4362°E)
Time: 22:09:32
(UTC+00:00)

Daily predictions for brighter satellites

Satellite Brightness Start Highest point End
(mag) Time Altitude Azimuth Time Altitude Azimuth Time Altitude Azimuth
Resurs 01 Rocket 1.6 17:46:21 10° SSE 17:50:42 71° ENE 17:55:06 10° N
Cosmos 1400 Rocket 2.7 17:47:29 10° S 17:51:18 64° E 17:55:04 10° NNE
Cosmos 1908 3.0 17:47:51 10° N 17:51:29 74° E 17:55:04 10° SSE
Meteor 2-10 Rocket 4.4 17:48:29 10° N 17:53:18 33° ENE 17:57:55 10° SE
CZ-4B R/B 3.2 17:48:01 10° SSE 17:53:18 88° E 17:58:43 10° NNW
Cosmos 2360 Rocket 2.8 17:51:27 10° N 17:56:49 41° ENE 18:02:07 10° SE
Feng Yun 1-1 Rocket 4.4 17:52:34 10° SSE 17:58:22 87° ENE 18:04:04 10° NNW
GENESIS II 3.9 17:56:04 10° SSW 17:59:40 73° ESE 18:03:18 10° NE
Cosmos 2237 4.5 17:55:41 10° NNW 18:01:24 72° WSW 18:07:03 10° SSE
RESURS DK-1 2.4 18:01:08 10° NNW 18:05:12 79° WSW 18:09:15 10° SSE
Cosmos 1441 Rocket 3.8 18:05:58 10° NNW 18:09:32 54° W 18:13:08 10° S
SL-24 R/B 4.0 18:05:43 10° SSE 18:10:10 74° ENE 18:14:07 10° N
Cosmos 968 Rocket 3.5 18:06:48 10° SSW 18:11:57 90° ESE 18:17:10 10° NNE
Cosmos 1869 Rocket 3.7 18:12:39 10° N 18:17:08 83° W 18:21:34 10° S
SL-16 R/B 2.7 18:12:55 10° NNW 18:18:30 59° WSW 18:24:01 10° S
CSL-04 Rocket 4.0 18:14:33 10° S 18:19:48 67° WSW 18:25:10 10° NNW
USA 234 3.9 18:16:31 10° ENE 18:22:09 31° SE 18:27:47 10° S
Meteor 1-21 4.4 18:17:55 10° S 18:23:35 60° E 18:29:18 10° NNE
Cosmos 1315 Rocket 3.9 18:22:16 16° SE 18:24:30 26° E 18:27:49 10° NE
ASTRO E2 3.8 18:22:43 10° WSW 18:25:30 22° SSW 18:27:03 17° SSE
SJ 16-02 1.4 18:23:28 10° SSW 18:27:46 82° WNW 18:32:06 10° NNE
Cosmos 1346 Rocket 3.0 18:24:20 10° N 18:28:03 47° ENE 18:30:34 19° SSE
CZ-4C R/B 2.4 18:26:59 10° S 18:30:34 29° ESE 18:34:44 10° NE
ARGOS Delta rocket 3.8 18:28:12 15° SSE 18:31:40 57° ENE 18:35:59 10° N
COSMOS 2455 3.4 18:26:50 10° S 18:32:12 35° ESE 18:37:35 10° NE
Terra 3.0 18:30:37 17° ESE 18:33:19 28° ENE 18:37:18 10° NNE
Cosmos 2266 Rocket 4.5 18:28:08 10° SSW 18:34:25 66° W 18:40:48 10° N
Okean-O 2.6 18:31:03 13° SSE 18:34:56 85° E 18:39:22 10° N
Cosmos 2333 Rocket 2.2 18:32:12 10° NNW 18:37:59 85° ENE 18:42:29 17° SSE
SL-4 R/B 4.2 18:35:44 10° NNW 18:38:24 18° NNE 18:41:10 10° ENE
SL-14 R/B 3.7 18:35:18 10° SSW 18:39:02 60° W 18:42:48 10° N
Okean 1-7 3.7 18:37:50 21° SE 18:40:03 34° E 18:43:58 10° NNE
SPOT 5 2.6 18:38:42 19° SSE 18:41:44 68° ENE 18:46:11 10° N
S3M 4.2 18:35:34 10° N 18:41:51 73° W 18:48:02 10° S
Okean O Rocket 2.9 18:39:07 10° SSW 18:43:10 38° W 18:47:14 10° NNW
USA 245 4.3 18:41:37 22° ESE 18:43:42 38° ENE 18:48:15 10° N
IRS-1A Rocket 4.4 18:39:54 19° SE 18:43:48 57° ENE 18:49:13 10° N
Cosmos 1862 Rocket 3.5 18:39:54 10° S 18:44:18 88° E 18:48:45 10° N
Meteor 1-4 Rocket 1.9 18:42:51 22° S 18:44:38 75° E 18:47:38 10° NNE
ERS-1 Rocket 3.4 18:42:34 21° SE 18:45:35 46° ENE 18:50:23 10° N
CZ-4C R/B 3.6 18:43:34 10° N 18:47:39 70° WNW 18:51:36 10° SSW
Cosmos 2228 Rocket 3.7 18:43:51 10° SSW 18:48:20 59° W 18:52:52 10° N
Okean 3 3.3 18:47:54 13° S 18:51:31 86° E 18:55:42 10° N
Cosmos 1814 Rocket 4.0 18:46:21 10° NNW 18:51:42 76° ENE 18:55:01 24° SSE
SL-23 DEB 4.2 18:53:18 32° SE 18:53:42 33° SE 18:57:39 10° ENE
Okean 2 3.5 18:52:42 28° SSE 18:54:27 49° E 18:58:21 10° NNE
Cosmos 2322 Rocket 3.1 18:50:21 10° NW 18:55:45 46° WSW 19:00:33 13° S
Meteor 1-16 Rocket 4.5 18:51:04 10° N 18:56:55 58° E 19:00:16 25° SSE
DNEPR-1 R/B 4.1 18:51:01 10° NNW 18:57:12 76° ENE 18:59:58 28° SE
Cosmos 2297 Rocket 3.2 18:56:07 24° ESE 18:57:12 25° ESE 19:01:43 10° NE
Meteor 2-20 4.4 18:51:32 10° N 18:57:41 72° E 19:01:44 22° SSE
Cosmos 1242 Rocket 3.0 18:59:30 28° ENE 18:59:30 28° ENE 19:01:20 10° NNE
Cosmos 2333 4.3 18:53:06 10° NNW 18:58:56 84° WSW 19:02:36 23° SSE
Cosmos 1300 3.3 18:56:32 10° NNW 18:59:59 48° W 19:02:13 19° SSW
Aureole 3 3.8 18:56:37 14° S 19:00:18 80° W 19:05:39 10° N
OPS 8737 4.1 18:58:28 10° NNW 19:01:30 85° ENE 19:02:24 45° SE
Cosmos 1244 Rocket 4.5 19:01:19 18° S 19:06:03 69° E 19:12:20 10° NNE
Atlas Centaur 2 4.5 19:04:21 10° WSW 19:09:20 19° SSW 19:12:24 15° S
ATLAS 2AS CENTAUR R/B 3.0 19:03:53 10° NW 19:10:27 58° WSW 19:14:33 23° S
Cosmos 2219 Rocket 2.1 19:05:21 10° NNW 19:11:04 89° ENE 19:13:59 30° SSE
Nadezhda 2 Rocket 4.5 19:11:18 19° S 19:16:03 79° E 19:22:28 10° N
Landsat 4 3.8 19:18:11 45° E 19:18:20 46° ENE 19:21:38 10° N
Spot 2 Rocket 3.5 19:16:35 35° SSE 19:18:43 73° ENE 19:23:48 10° N
SPOT 3 Rocket 3.6 19:18:14 36° SE 19:20:15 63° ENE 19:25:22 10° N
SL-08 R/B 4.4 19:17:46 26° S 19:21:19 72° E 19:27:24 10° N
Delta 2 Rocket 3.3 19:19:53 10° WSW 19:22:18 44° SW 19:22:18 44° SW
Cosmos 1733 Rocket 4.2 19:19:30 10° NNW 19:23:39 40° W 19:26:21 19° SSW
Cosmos 1408 4.4 19:29:34 15° NE 19:29:34 15° NE 19:30:23 10° NE
Cosmos 1503 Rocket 4.5 19:28:06 38° ESE 19:28:43 39° ESE 19:33:38 10° NE
Cosmos 1455 1.9 19:25:47 10° N 19:29:17 69° E 19:29:17 69° E
SeaSat 1 2.9 19:28:53 36° ESE 19:30:22 47° ENE 19:35:04 10° NNW
Meteor 2-20 Rocket 4.3 19:24:31 10° N 19:30:37 88° W 19:33:21 34° S
CENTAUR R/B 3.0 19:36:42 32° E 19:36:42 32° E 19:41:39 10° NE
Cosmos 2242 Rocket 4.5 19:37:31 34° E 19:37:31 34° E 19:41:26 10° NNE
Cosmos 2360 Rocket 4.0 19:36:03 10° NW 19:40:29 24° WSW 19:44:03 13° SSW
COSMOS 2428 2.7 19:35:39 10° NNW 19:41:21 72° ENE 19:43:02 46° SE
Cosmos 158 Rocket 4.1 19:37:31 10° N 19:42:40 60° ENE 19:43:41 50° ESE
Cosmos 2208 Rocket 4.0 19:38:24 10° NNW 19:43:33 65° ENE 19:44:36 51° SE
Ariane Rocket 3.1 19:42:23 41° S 19:44:06 69° WSW 19:49:11 10° NNW
Cosmos 1908 Rocket 3.5 19:41:20 10° N 19:45:39 80° W 19:46:16 64° SSW
Cosmos 1953 2.5 19:43:34 10° NNW 19:47:18 57° W 19:47:36 55° WSW
Cosmos 1782 Rocket 3.7 19:45:23 10° N 19:49:35 53° ENE 19:49:35 53° ENE
Cosmos 839 Rocket 4.4 19:44:02 10° NW 19:50:12 52° WSW 19:52:28 35° SSW
Cosmos 2084 Rocket 4.3 19:49:04 10° SW 19:53:17 48° NW 19:57:21 10° NNE
Cosmos 1486 Rocket 4.1 19:51:31 31° SSW 19:54:01 70° WNW 19:59:13 10° NNE
Cosmos 1300 Rocket 3.9 19:50:53 10° N 19:54:52 49° ENE 19:54:52 49° ENE
SL-12 R/B(2) 4.4 19:54:36 39° SE 19:56:12 43° ESE 20:04:25 10° NE
MetOp-A 3.9 20:02:04 64° SSE 20:02:53 81° ENE 20:08:07 10° N
ARIANE 5 R/B 4.0 20:04:21 26° ENE 20:04:21 26° ENE 20:07:43 10° NNE
USA 234 3.6 19:58:54 10° NE 20:05:22 65° NW 20:11:48 10° WSW
NOSS 0 Rocket 3.9 19:59:26 10° NNW 20:05:43 76° ENE 20:07:09 54° SE
Cosmos 371 Rocket 3.8 20:05:26 35° SW 20:07:09 55° WNW 20:11:54 10° N
GP-B 3.0 20:05:33 10° N 20:09:47 81° NNE 20:09:47 81° NNE
Terra 3.4 20:09:19 22° SW 20:10:48 26° W 20:14:44 10° NW
Cosmos 1354 Rocket 3.8 20:14:54 75° SSE 20:15:19 82° ESE 20:20:38 10° NNE
USA 281 4.3 20:13:11 26° E 20:15:29 32° ENE 20:21:11 10° N
Cosmos 1745 Rocket 4.2 20:14:07 38° SSW 20:16:35 68° W 20:22:56 10° N
SL-4 R/B 2.5 20:13:33 10° NW 20:16:43 56° NW 20:16:43 56° NW
COSMOS 2455 4.4 20:12:38 10° WSW 20:18:03 34° NW 20:23:30 10° N
CZ-4C R/B 3.9 20:15:08 10° WSW 20:18:51 26° NW 20:23:14 10° NNE
H-2A R/B 4.4 20:20:29 20° ENE 20:20:29 20° ENE 20:23:01 10° NNE
SL-16 R/B 4.1 20:16:50 10° NNE 20:20:37 18° NE 20:22:21 16° ENE
Cosmos 2227 Rocket 2.0 20:21:35 70° SE 20:21:47 71° ESE 20:27:26 10° NNE
Cosmos 2237 Rocket 2.3 20:17:03 10° NNW 20:22:39 61° ENE 20:23:11 58° E
BREEZE-M DEB (TANK) 3.9 20:20:12 10° NW 20:21:42 38° NW 20:21:42 38° NW
Meteor 2-5 Rocket 3.7 20:22:51 68° SE 20:23:25 74° E 20:29:13 10° NNE
Nadezhda 1 Rocket 4.1 20:20:54 10° NNW 20:27:01 65° W 20:28:26 51° SSW
Cosmos 1066 4.5 20:27:24 78° SE 20:27:40 81° E 20:33:14 10° N
Cosmos 1980 3.5 20:31:28 10° NNW 20:37:10 87° ENE 20:37:25 82° SE
Cosmos 773 Rocket 3.9 20:32:56 10° NNW 20:37:59 79° W 20:37:59 79° W
Cosmos 2297 Rocket 3.3 20:37:49 22° WSW 20:40:58 39° WNW 20:46:14 10° N
Okean 2 Rocket 4.4 20:38:30 10° NNE 20:41:37 32° NE 20:41:37 32° NE
NOSS 3-2 (A) 3.2 20:46:21 61° ENE 20:46:21 61° ENE 20:51:13 10° NE
ALOS 2 4.3 20:48:20 25° NE 20:48:20 25° NE 20:51:12 10° NNE
Cosmos 2074 Rocket 4.4 20:48:52 47° E 20:48:52 47° E 20:54:43 10° NNE
Cosmos 2219 3.3 20:56:02 66° ENE 20:56:02 66° ENE 21:01:02 10° NNE
Cosmos 2181 Rocket 3.9 20:50:39 10° N 20:56:45 67° E 20:56:57 67° E
Cosmos 2098 Rocket 3.7 20:53:48 10° N 21:00:10 85° W 21:00:15 84° WSW
Meteor 1-24 Rocket 4.2 21:00:37 47° WSW 21:01:21 50° WNW 21:06:46 10° N
Cosmos 2263 Rocket 2.7 21:02:30 47° ENE 21:02:30 47° ENE 21:06:50 10° NNE
SeaSat 1 4.4 21:08:35 19° W 21:08:35 19° W 21:11:26 10° WNW
H-2A R/B 4.5 21:07:41 10° NE 21:08:26 13° NE 21:08:26 13° NE
BREEZE-M R/B 3.3 21:19:46 70° WNW 21:20:01 72° NNW 21:28:30 10° NE
Okean 1 Rocket 4.3 21:17:32 10° N 21:20:25 39° NNE 21:20:25 39° NNE
Spot 4 4.4 21:24:29 55° NNW 21:24:29 55° NNW 21:28:16 10° NNW
CENTAUR R/B 3.7 21:23:46 23° W 21:26:38 36° NW 21:32:46 10° NNE
Cosmos 1937 Rocket 4.5 21:29:46 39° ENE 21:29:46 39° ENE 21:33:24 10° NNE
Nadezhda 3 Rocket 4.2 21:26:51 10° N 21:32:59 59° E 21:32:59 59° E
Cosmos 1025 Rocket 4.4 21:35:17 36° NNE 21:35:17 36° NNE 21:37:52 10° N
Cosmos 2184 Rocket 4.1 21:41:41 64° W 21:41:58 65° W 21:48:20 10° N
Cosmos 1898 Rocket 3.9 21:45:07 59° N 21:45:07 59° N 21:49:20 10° NNE
Meteor 1-21 Rocket 4.3 21:45:20 72° NNE 21:45:20 72° NNE 21:50:24 10° N
Cosmos 1455 Rocket 4.5 21:46:50 10° N 21:49:42 36° NNE 21:49:42 36° NNE
Cosmos 2327 Rocket 4.4 21:53:31 73° ENE 21:53:31 73° ENE 21:59:20 10° N
USA 281 3.7 22:00:04 44° W 22:00:04 44° W 22:06:00 10° NW
Cosmos 2154 Rocket 4.3 22:00:32 56° W 22:00:42 56° W 22:06:53 10° N
SL-8 Rocket 4.4 22:01:46 50° E 22:01:46 50° E 22:07:35 10° NNE
USA 238 DEB 3.6 22:04:39 63° E 22:04:39 63° E 22:10:27 10° NE
USA 238 3.6 22:04:42 62° E 22:04:42 62° E 22:10:29 10° NE
SL-16 R/B 2.6 21:59:33 10° NNW 22:04:11 54° WNW 22:04:11 54° WNW
Cosmos 2237 Rocket 4.3 22:02:51 10° WNW 22:05:00 15° W 22:05:00 15° W
Cosmos 1867 4.0 22:09:45 57° NE 22:09:45 57° NE 22:14:06 10° NNE
Cosmos 1943 4.0 22:06:24 10° N 22:11:44 43° ENE 22:12:08 42° ENE
Cosmos 962 Rocket 4.4 22:13:31 87° ENE 22:13:31 87° ENE 22:19:49 10° N
Cosmos 1680 Rocket 3.9 22:20:11 10° NNW 22:24:39 60° NNE 22:24:39 60° NNE
Cosmos 2112 Rocket 4.4 22:26:05 10° NNW 22:30:37 59° NE 22:30:37 59° NE
Cosmos 864 Rocket 4.4 22:39:41 86° S 22:39:50 89° ESE 22:46:11 10° N
GEOS 3 Rocket 4.0 22:37:20 10° NE 22:41:32 56° ENE 22:41:32 56° ENE
Cosmos 2263 Rocket 4.1 22:44:08 17° WNW 22:45:38 19° NW 22:49:34 10° N
H-2A R/B 3.9 22:42:52 10° NNW 22:45:13 24° NW 22:45:13 24° NW
Cosmos 1844 3.7 22:55:18 83° NE 22:55:18 83° NE 23:00:57 10° NNE
Cosmos 921 Rocket 4.3 22:53:42 10° N 22:56:55 34° NE 22:56:55 34° NE
Cosmos 2341 Rocket 4.4 23:00:28 48° W 23:00:41 48° W 23:06:41 10° N
Cosmos 1844 Rocket 2.7 23:01:41 71° NW 23:01:41 71° NW 23:07:05 10° NNE
Cosmos 1125 Rocket 4.2 23:03:30 46° E 23:03:30 46° E 23:08:17 10° NNE
CZ-2D R/B 3.6 23:02:50 10° NE 23:07:06 25° E 23:07:41 24° ESE
Cosmos 1821 Rocket 3.8 23:07:24 77° SSE 23:07:50 85° E 23:14:02 10° N
CZ-2C R/B 4.2 23:17:11 20° ESE 23:19:51 31° ENE 23:24:33 10° N
Timation 2 Rocket 4.0 23:20:08 64° SSE 23:21:02 74° ESE 23:27:25 10° NNE
Resurs 1-4 Rocket 3.0 23:16:56 10° NNE 23:21:49 37° E 23:22:29 35° ESE
Cosmos 1437 Rocket 4.3 23:29:05 28° NNW 23:29:05 28° NNW 23:31:11 10° N
Meteor 2-13 Rocket 4.3 23:25:15 10° N 23:31:23 82° W 23:32:13 67° SSW
BlueWalker 3 4.4 23:29:57 10° NNW 23:32:53 21° NNE 23:35:48 10° E
Cosmos 1934 Rocket 4.5 23:31:02 41° SE 23:32:53 55° E 23:39:05 10° NNE
MOZ.5/SAFIR/RUBIN 5/SL-8 3.7 23:35:42 79° NE 23:35:42 79° NE 23:40:13 10° N
Cosmos 2150 Rocket 4.4 23:38:23 50° SE 23:38:57 53° ESE 23:44:07 10° NNE
IDEFIX/ARIANE 42P 2.5 23:33:54 10° NNE 23:39:08 76° ESE 23:39:36 70° SSE
Cosmos 1606 Rocket 3.7 23:34:45 10° N 23:38:49 71° NE 23:38:49 71° NE
ALOS 4.4 23:37:54 10° NE 23:40:51 17° E 23:42:29 14° ESE
Cosmos 2278 Rocket 4.2 23:42:28 15° SE 23:44:45 19° E 23:48:34 10° ENE
NPP 3.5 23:41:41 10° NNE 23:47:05 87° E 23:47:52 67° S
Helios 1A Rocket 4.5 23:52:13 24° NW 23:52:13 24° NW 23:54:02 10° NNW
Cosmos 1726 Rocket 3.5 23:46:57 10° N 23:51:21 76° E 23:51:24 76° E
Cosmos 2123 Rocket 4.2 23:46:42 10° N 23:52:53 65° E 23:55:44 33° SSE
Cosmos 1603 4.3 23:49:26 10° NW 23:54:09 38° W 23:54:09 38° W
